This is the latest recevied weather packets stored in our database for station/object N9BLE. If no packets are shown the sender has not sent any weather packets the latest 10 day(s).
| Time | Temp. | Humidity | Pressure | Rain* | Wind** | Luminosity | Snow |
|---|---|---|---|---|---|---|---|
| 1777844475 | 21.11° C | 43% | 1010.1 hPa | 0 mm | - | 395 W/m² | - |
| 1777844175 | 21.11° C | 45% | 1010.2 hPa | 0 mm | - | 397 W/m² | - |
| 1777843870 | 21.11° C | 46% | 1010.2 hPa | 0 mm | - | 430 W/m² | - |
| 1777843568 | 21.11° C | 45% | 1010.1 hPa | 0 mm | - | 330 W/m² | - |
| 1777843265 | 21.11° C | 42% | 1010.1 hPa | 0 mm | - | 511 W/m² | - |
| 1777842962 | 20.56° C | 44% | 1010.2 hPa | 0 mm | - | 443 W/m² | - |
| 1777842657 | 19.44° C | 48% | 1010.4 hPa | 0 mm | - | 361 W/m² | - |
| 1777842354 | 20.56° C | 46% | 1010.4 hPa | 0 mm | - | 183 W/m² | - |
| 1777842050 | 20.56° C | 45% | 1010.4 hPa | 0 mm | - | 555 W/m² | - |
| 1777841747 | 20° C | 47% | 1010.5 hPa | 0 mm | - | 513 W/m² | - |
| 1777841443 | 20.56° C | 45% | 1010.7 hPa | 0 mm | - | 568 W/m² | - |
| 1777841141 | 20.56° C | 51% | 1010.9 hPa | 0 mm | - | 552 W/m² | - |
| 1777840837 | 20° C | 45% | 1011 hPa | 0 mm | - | 603 W/m² | - |
| 1777840535 | 20° C | 45% | 1011.1 hPa | 0 mm | - | 603 W/m² | - |
| 1777840232 | 20° C | 44% | 1011.4 hPa | 0 mm | - | 679 W/m² | - |
| 1777839930 | 18.33° C | 50% | 1011.2 hPa | 0 mm | - | 559 W/m² | - |
| 1777839627 | 18.33° C | 48% | 1011.7 hPa | 0 mm | - | 261 W/m² | - |
| 1777839325 | 18.89° C | 47% | 1011.7 hPa | 0 mm | - | 232 W/m² | - |
| 1777839022 | 17.78° C | 49% | 1011.7 hPa | 0 mm | - | 647 W/m² | - |
| 1777838718 | 17.78° C | 51% | 1012 hPa | 0 mm | - | 251 W/m² | - |
| 1777838415 | 17.78° C | 46% | 1012 hPa | 0 mm | - | 231 W/m² | - |
| 1777838113 | 17.78° C | 47% | 1012 hPa | 0 mm | - | 298 W/m² | - |
| 1777837809 | 17.78° C | 47% | 1012.1 hPa | 0 mm | - | 236 W/m² | - |
| 1777837507 | 18.33° C | 46% | 1012.3 hPa | 0 mm | - | 249 W/m² | - |
| 1777837206 | 18.33° C | 48% | 1012.1 hPa | 0 mm | - | 679 W/m² | - |
* Rain latest hour (hover to see other rain measurements)
** Current wind speed in m/s (hover to see current wind gust speed)